GW2177 Weather Reports


time (UTC)temp
C
wind
direction
speed
KPH
gust
KPH
rain 1hr
cm
rain 24hr
cm
rain mn
cm
humidity
%
barometer
mb
20260906172314 36 148 3.2 3.2 0.00 0.00 0.00 50 1012.5
20260906171813 36 152 1.6 1.6 0.00 0.00 0.00 51 1012.7
20260906171308 35 157 0.0 0.0 0.00 0.00 0.00 52 1012.6
20260906170804 35 117 3.2 3.2 0.00 0.00 0.00 53 1012.6
20260906170300 34 112 3.2 3.2 0.00 0.00 0.00 55 1012.7
20260906165756 34 113 6.4 6.4 0.00 0.00 0.00 56 1013.0
20260906165256 35 101 6.4 6.4 0.00 0.00 0.00 55 1013.0
20260906164755 34 152 0.0 0.0 0.00 0.00 0.00 56 1013.1
20260906164250 34 124 3.2 3.2 0.00 0.00 0.00 56 1013.1
20260906163746 33 134 3.2 4.8 0.00 0.00 0.00 58 1013.3
20260906163242 33 106 6.4 9.7 0.00 0.00 0.00 59 1013.2
20260906162739 33 113 6.4 6.4 0.00 0.00 0.00 58 1013.2
20260906162233 33 157 1.6 3.2 0.00 0.00 0.00 59 1013.3
20260906161733 33 107 4.8 4.8 0.00 0.00 0.00 58 1013.1
20260906161232 33 123 1.6 3.2 0.00 0.00 0.00 60 1013.2
20260906160732 33 197 3.2 3.2 0.00 0.00 0.00 60 1013.3
20260906160231 33 101 1.6 1.6 0.00 0.00 0.00 61 1013.2
20260906155729 32 148 1.6 1.6 0.00 0.00 0.00 62 1013.2
20260906155224 32 137 1.6 1.6 0.00 0.00 0.00 63 1013.2
20260906154719 32 91 4.8 4.8 0.00 0.00 0.00 63 1013.2
20260906154215 32 98 1.6 3.2 0.00 0.00 0.00 63 1013.1
20260906153712 32 149 4.8 6.4 0.00 0.00 0.00 63 1013.1
20260906153208 31 121 8.0 11.3 0.00 0.00 0.00 64 1013.1
20260906152702 31 136 4.8 4.8 0.00 0.00 0.00 65 1012.8
20260906152156 31 132 3.2 4.8 0.00 0.00 0.00 66 1012.9
20260906151651 31 126 6.4 9.7 0.00 0.00 0.00 65 1012.9
20260906151147 31 179 1.6 1.6 0.00 0.00 0.00 67 1012.9
20260906150642 30 124 3.2 4.8 0.00 0.00 0.00 68 1012.9
20260906150137 30 123 1.6 3.2 0.00 0.00 0.00 69 1012.9
20260906145636 30 92 6.4 9.7 0.00 0.00 0.00 68 1012.8
20260906145131 30 114 4.8 4.8 0.00 0.00 0.00 69 1012.9
20260906144631 29 123 3.2 3.2 0.00 0.00 0.00 71 1013.1
20260906144126 29 126 1.6 3.2 0.00 0.00 0.00 72 1012.9
20260906143626 28 105 4.8 4.8 0.00 0.00 0.00 73 1013.2
20260906143124 28 105 8.0 9.7 0.00 0.00 0.00 73 1013.1
20260906142622 28 154 1.6 3.2 0.00 0.00 0.00 74 1013.3
20260906142118 28 119 3.2 4.8 0.00 0.00 0.00 75 1013.1
20260906141616 28 173 1.6 1.6 0.00 0.00 0.00 76 1013.1
20260906141112 27 149 1.6 1.6 0.00 0.00 0.00 76 1013.2
20260906140611 27 123 3.2 3.2 0.00 0.00 0.00 77 1013.4
20260906140106 27 176 1.6 1.6 0.00 0.00 0.00 78 1013.3
20260906135603 27 182 0.0 0.0 0.00 0.00 0.00 79 1013.3
20260906135059 27 180 1.6 3.2 0.00 0.00 0.00 79 1013.4
20260906134554 26 174 1.6 1.6 0.00 0.00 0.00 79 1013.3
20260906134054 26 166 0.0 0.0 0.00 0.00 0.00 80 1013.1
20260906133550 26 150 1.6 1.6 0.00 0.00 0.00 81 1013.1
20260906133045 26 168 0.0 1.6 0.00 0.00 0.00 81 1013.0
20260906132540 26 149 1.6 1.6 0.00 0.00 0.00 82 1013.1
20260906132036 25 193 1.6 1.6 0.00 0.00 0.00 82 1013.3
20260906131531 25 173 0.0 1.6 0.00 0.00 0.00 83 1012.9
20260906131026 25 169 1.6 1.6 0.00 0.00 0.00 83 1013.0
20260906130526 25 158 1.6 1.6 0.00 0.00 0.00 83 1013.0
20260906130021 25 158 3.2 3.2 0.00 0.00 0.00 82 1012.9
20260906125518 25 171 0.0 0.0 0.00 0.00 0.00 82 1012.8
20260906125013 25 163 0.0 1.6 0.00 0.00 0.00 82 1012.8
20260906124508 25 143 1.6 3.2 0.00 0.00 0.00 82 1012.6
20260906124004 25 169 0.0 0.0 0.00 0.00 0.00 82 1012.5
20260906123502 25 156 0.0 1.6 0.00 0.00 0.00 82 1012.6
20260906123003 25 139 3.2 4.8 0.00 0.00 0.00 82 1012.7
20260906122457 25 181 0.0 1.6 0.00 0.00 0.00 81 1012.6
20260906121954 25 173 1.6 3.2 0.00 0.00 0.00 81 1012.4
20260906121450 25 177 0.0 1.6 0.00 0.00 0.00 81 1012.3
20260906120946 25 179 0.0 0.0 0.00 0.00 0.00 81 1012.4
20260906120441 25 169 0.0 1.6 0.00 0.00 0.00 81 1012.3
20260906115937 25 146 1.6 3.2 0.00 0.00 0.00 81 1012.2
20260906115432 25 138 1.6 3.2 0.00 0.00 0.00 81 1011.9
20260906114932 25 132 1.6 3.2 0.00 0.00 0.00 81 1012.1
20260906114426 25 179 0.0 0.0 0.00 0.00 0.00 81 1012.1
20260906113922 25 156 1.6 3.2 0.00 0.00 0.00 81 1012.1
20260906113421 25 176 0.0 0.0 0.00 0.00 0.00 81 1012.1
20260906112917 25 167 0.0 1.6 0.00 0.00 0.00 81 1012.1
20260906112412 25 174 1.6 1.6 0.00 0.00 0.00 81 1012.0
20260906111907 25 133 3.2 3.2 0.00 0.00 0.00 81 1012.1
20260906111407 25 199 0.0 0.0 0.00 0.00 0.00 81 1012.0
20260906110902 25 193 0.0 0.0 0.00 0.00 0.00 81 1011.8
20260906110357 25 175 0.0 0.0 0.00 0.00 0.00 81 1011.9
20260906105856 25 179 0.0 0.0 0.00 0.00 0.00 81 1011.7
20260906105352 25 168 0.0 0.0 0.00 0.00 0.00 80 1011.6
20260906104848 25 163 0.0 1.6 0.00 0.00 0.00 80 1011.6
20260906104346 25 176 0.0 0.0 0.00 0.00 0.00 80 1011.8
20260906103845 25 212 1.6 1.6 0.00 0.00 0.00 80 1011.6
20260906103343 25 184 0.0 0.0 0.00 0.00 0.00 80 1011.6
20260906102840 25 221 0.0 1.6 0.00 0.00 0.00 80 1011.8
20260906102338 25 169 0.0 0.0 0.00 0.00 0.00 80 1011.7
20260906101834 25 169 0.0 0.0 0.00 0.00 0.00 80 1011.5
20260906101329 25 169 0.0 0.0 0.00 0.00 0.00 80 1011.5
20260906100825 25 168 0.0 0.0 0.00 0.00 0.00 80 1011.5
20260906100323 25 168 0.0 0.0 0.00 0.00 0.00 79 1011.5
20260906095819 25 168 0.0 0.0 0.00 0.00 0.00 79 1011.4
20260906095314 25 168 0.0 0.0 0.00 0.00 0.00 79 1011.5
20260906094813 25 169 0.0 0.0 0.00 0.00 0.00 79 1011.5
20260906094308 25 169 0.0 0.0 0.00 0.00 0.00 78 1011.6
20260906093805 25 169 0.0 0.0 0.00 0.00 0.00 78 1011.5
20260906093300 25 193 0.0 0.0 0.00 0.00 0.00 78 1011.4
20260906092755 25 169 0.0 0.0 0.00 0.00 0.00 78 1011.6
20260906092249 26 195 0.0 0.0 0.00 0.00 0.00 77 1011.5
20260906091745 26 200 1.6 1.6 0.00 0.00 0.00 77 1011.4
20260906091241 26 170 0.0 0.0 0.00 0.00 0.00 77 1011.4
20260906090737 26 188 0.0 0.0 0.00 0.00 0.00 77 1011.4
20260906090236 26 166 0.0 0.0 0.00 0.00 0.00 77 1011.2
20260906085736 26 167 0.0 1.6 0.00 0.00 0.00 77 1011.2
20260906085235 26 168 0.0 0.0 0.00 0.00 0.00 76 1011.3
20260906084730 26 168 0.0 0.0 0.00 0.00 0.00 76 1011.0
20260906084230 26 169 0.0 0.0 0.00 0.00 0.00 76 1011.1
20260906083725 26 170 0.0 0.0 0.00 0.00 0.00 76 1011.0
20260906083220 26 178 0.0 0.0 0.00 0.00 0.00 75 1011.1
20260906082716 26 174 0.0 0.0 0.00 0.00 0.00 75 1011.1
20260906082211 26 191 0.0 0.0 0.00 0.00 0.00 75 1011.2
20260906081707 26 170 0.0 0.0 0.00 0.00 0.00 74 1011.0
20260906081201 26 201 0.0 0.0 0.00 0.00 0.00 74 1011.2
20260906080658 26 187 0.0 0.0 0.00 0.00 0.00 74 1010.9
20260906080154 26 167 0.0 0.0 0.00 0.00 0.00 73 1011.0
20260906075654 26 167 0.0 0.0 0.00 0.00 0.00 73 1010.9
20260906075148 27 168 0.0 0.0 0.00 0.00 0.00 72 1011.0
20260906074643 27 163 0.0 0.0 0.00 0.00 0.00 72 1010.9
20260906074142 27 163 0.0 1.6 0.00 0.00 0.00 72 1011.0
20260906073637 27 168 0.0 0.0 0.00 0.00 0.00 72 1010.8
20260906073133 27 166 0.0 0.0 0.00 0.00 0.00 71 1010.8
20260906072628 27 159 0.0 0.0 0.00 0.00 0.00 71 1010.9
20260906072124 27 165 0.0 0.0 0.00 0.00 0.00 71 1010.9
20260906071621 27 180 0.0 0.0 0.00 0.00 0.00 71 1011.0
20260906071120 27 149 3.2 3.2 0.00 0.00 0.00 70 1011.1
20260906070617 27 170 0.0 1.6 0.00 0.00 0.00 70 1010.9
20260906070112 27 181 0.0 0.0 0.00 0.00 0.00 70 1011.0
20260906065612 27 150 1.6 1.6 0.00 0.00 0.00 70 1011.1
20260906065108 27 136 1.6 1.6 0.00 0.00 0.00 70 1011.1
20260906064603 27 173 1.6 1.6 0.00 0.00 0.00 70 1011.1
20260906064057 27 155 1.6 1.6 0.00 0.00 0.00 70 1011.2
20260906063548 28 147 1.6 1.6 0.00 0.00 0.00 69 1011.3
20260906063044 28 163 0.0 1.6 0.00 0.00 0.00 69 1011.3
20260906062539 28 149 1.6 1.6 0.00 0.00 0.00 69 1011.3
20260906062038 28 158 1.6 1.6 0.00 0.00 0.00 69 1011.3
20260906061535 28 156 1.6 1.6 0.00 0.00 0.00 69 1011.2
20260906061033 28 156 1.6 1.6 0.00 0.00 0.00 69 1011.6
20260906060530 28 158 1.6 1.6 0.00 0.00 0.00 69 1011.5
20260906060027 28 158 1.6 3.2 0.00 0.00 0.00 69 1011.2
20260906055523 28 140 3.2 3.2 0.00 0.00 0.00 69 1011.5
20260906055019 28 148 3.2 3.2 0.00 0.00 0.00 69 1011.5
20260906054519 28 150 1.6 1.6 0.00 0.00 0.00 69 1011.4
20260906054014 28 142 1.6 3.2 0.00 0.00 0.00 69 1011.4
20260906053510 28 146 1.6 1.6 0.00 0.00 0.00 69 1011.3
20260906053005 28 149 1.6 1.6 0.00 0.00 0.00 69 1011.3
20260906052501 28 159 1.6 1.6 0.00 0.00 0.00 69 1011.6
20260906051958 28 142 3.2 3.2 0.00 0.00 0.00 69 1011.5
20260906051453 28 136 1.6 3.2 0.00 0.00 0.00 69 1011.4
20260906050949 28 143 1.6 3.2 0.00 0.00 0.00 69 1011.4
20260906050448 28 149 1.6 1.6 0.00 0.00 0.00 69 1011.4
20260906045947 28 152 0.0 1.6 0.00 0.00 0.00 69 1011.3
20260906045446 28 156 1.6 1.6 0.00 0.00 0.00 69 1011.5
20260906044942 28 161 0.0 1.6 0.00 0.00 0.00 69 1011.2
20260906044437 28 143 1.6 1.6 0.00 0.00 0.00 69 1011.2
20260906043933 28 159 0.0 1.6 0.00 0.00 0.00 69 1011.3
20260906043429 28 162 0.0 1.6 0.00 0.00 0.00 69 1011.4
20260906042924 28 166 0.0 1.6 0.00 0.00 0.00 68 1011.3
20260906042423 28 165 0.0 0.0 0.00 0.00 0.00 68 1011.2
20260906041918 28 164 0.0 0.0 0.00 0.00 0.00 68 1011.2
20260906041414 28 174 0.0 0.0 0.00 0.00 0.00 68 1011.3
20260906040909 28 168 1.6 1.6 0.00 0.00 0.00 68 1011.1
20260906040404 28 157 1.6 1.6 0.00 0.00 0.00 68 1011.3
20260906035859 28 162 0.0 1.6 0.00 0.00 0.00 69 1011.3
20260906035354 28 167 1.6 1.6 0.00 0.00 0.00 69 1011.1
20260906034849 28 165 0.0 0.0 0.00 0.00 0.00 70 1011.0
20260906034344 27 165 0.0 0.0 0.00 0.00 0.00 71 1010.8
20260906033840 28 165 0.0 0.0 0.00 0.00 0.00 72 1010.8
20260906033339 28 165 1.6 1.6 0.00 0.00 0.00 71 1010.7
20260906032835 28 173 0.0 0.0 0.00 0.00 0.00 69 1010.6
20260906032331 28 175 0.0 1.6 0.00 0.00 0.00 70 1010.7
20260906031826 28 173 0.0 0.0 0.00 0.00 0.00 70 1010.7
20260906031321 28 156 1.6 1.6 0.00 0.00 0.00 70 1010.7
20260906030821 28 222 0.0 0.0 0.00 0.00 0.00 69 1010.7
20260906030316 28 223 0.0 0.0 0.00 0.00 0.00 69 1010.7
20260906025811 27 193 0.0 1.6 0.00 0.00 0.00 72 1010.6
20260906025306 27 185 0.0 0.0 0.00 0.00 0.00 73 1010.4
20260906024804 28 159 1.6 1.6 0.00 0.00 0.00 73 1010.3
20260906024303 28 178 0.0 0.0 0.00 0.00 0.00 72 1010.2
20260906023759 28 178 0.0 0.0 0.00 0.00 0.00 72 1010.1
20260906023254 28 178 0.0 0.0 0.00 0.00 0.00 71 1010.2
20260906022749 28 178 0.0 0.0 0.00 0.00 0.00 71 1010.2
20260906022245 28 178 0.0 0.0 0.00 0.00 0.00 70 1010.1
20260906021741 28 178 0.0 0.0 0.00 0.00 0.00 70 1010.0
20260906021240 28 178 0.0 0.0 0.00 0.00 0.00 70 1009.8
20260906020735 28 213 0.0 0.0 0.00 0.00 0.00 69 1009.9
20260906020234 29 213 0.0 0.0 0.00 0.00 0.00 68 1009.7
20260906015729 29 213 0.0 0.0 0.00 0.00 0.00 67 1009.8
20260906015227 29 213 0.0 0.0 0.00 0.00 0.00 67 1009.5
20260906014722 29 213 0.0 0.0 0.00 0.00 0.00 66 1009.5
20260906014218 30 213 0.0 0.0 0.00 0.00 0.00 65 1009.3
20260906013714 30 213 0.0 0.0 0.00 0.00 0.00 65 1009.3
20260906013214 30 213 0.0 0.0 0.00 0.00 0.00 64 1009.4
20260906012710 30 213 0.0 0.0 0.00 0.00 0.00 63 1009.3
20260906012209 30 213 0.0 0.0 0.00 0.00 0.00 62 1009.2
20260906011706 31 214 0.0 0.0 0.00 0.00 0.00 61 1009.4
20260906011205 31 214 0.0 0.0 0.00 0.00 0.00 59 1009.3
20260906010701 31 214 0.0 0.0 0.00 0.00 0.00 58 1009.1
20260906010157 31 214 0.0 0.0 0.00 0.00 0.00 57 1009.2
20260906005656 32 214 0.0 0.0 0.00 0.00 0.00 56 1009.4
20260906005156 32 214 0.0 0.0 0.00 0.00 0.00 54 1009.5
20260906004655 32 215 0.0 1.6 0.00 0.00 0.00 53 1009.5
20260906004150 32 196 0.0 0.0 0.00 0.00 0.00 52 1009.4
20260906003645 33 196 0.0 0.0 0.00 0.00 0.00 51 1009.5
20260906003141 33 196 0.0 0.0 0.00 0.00 0.00 50 1009.7
20260906002636 33 196 0.0 0.0 0.00 0.00 0.00 49 1009.5
20260906002130 34 196 0.0 0.0 0.00 0.00 0.00 47 1009.4
20260906001626 35 124 3.2 3.2 0.00 0.00 0.00 45 1009.5
20260906001125 35 155 1.6 3.2 0.00 0.00 0.00 45 1009.4
20260906000622 35 149 1.6 1.6 0.00 0.00 0.00 45 1009.5
20260906000117 35 152 3.2 3.2 0.00 0.00 0.00 44 1009.4
20260905235615 35 172 0.0 0.0 0.00 0.00 0.00 44 1009.4
20260905235111 35 150 1.6 1.6 0.00 0.00 0.00 44 1009.4
20260905234606 35 175 0.0 0.0 0.00 0.00 0.00 44 1009.5
20260905234101 35 188 0.0 0.0 0.00 0.00 0.00 44 1009.3
20260905233601 35 126 3.2 3.2 0.00 0.00 0.00 43 1009.5
20260905233056 35 114 4.8 4.8 0.00 0.00 0.00 43 1009.2
20260905232551 35 130 3.2 3.2 0.00 0.00 0.00 44 1009.4
20260905232047 35 145 3.2 3.2 0.00 0.00 0.00 44 1009.5
20260905231542 35 180 3.2 3.2 0.00 0.00 0.00 43 1009.3
20260905231038 35 172 0.0 0.0 0.00 0.00 0.00 45 1009.1
20260905230537 36 201 1.6 1.6 0.00 0.00 0.00 44 1009.3
20260905230036 36 163 0.0 1.6 0.00 0.00 0.00 44 1009.2
20260905225531 36 127 3.2 4.8 0.00 0.00 0.00 43 1009.2
20260905225027 35 203 6.4 9.7 0.00 0.00 0.00 44 1009.1
20260905224526 35 212 6.4 9.7 0.00 0.00 0.00 44 1009.2
20260905224026 36 165 0.0 1.6 0.00 0.00 0.00 44 1009.0
20260905223524 36 111 4.8 6.4 0.00 0.00 0.00 42 1008.9
20260905223020 36 185 1.6 1.6 0.00 0.00 0.00 43 1008.9
20260905222519 36 162 0.0 0.0 0.00 0.00 0.00 43 1009.0
20260905222014 36 184 0.0 0.0 0.00 0.00 0.00 44 1008.9
20260905221511 36 109 4.8 4.8 0.00 0.00 0.00 44 1009.1
20260905221007 36 139 4.8 4.8 0.00 0.00 0.00 43 1009.0
20260905220503 36 193 3.2 3.2 0.00 0.00 0.00 43 1009.0
20260905220002 36 144 1.6 1.6 0.00 0.00 0.00 43 1009.1
20260905215458 36 141 8.0 11.3 0.00 0.00 0.00 43 1009.1
20260905214954 36 112 6.4 6.4 0.00 0.00 0.00 43 1009.4
20260905214449 36 171 1.6 1.6 0.00 0.00 0.00 43 1009.1
20260905213949 36 130 3.2 3.2 0.00 0.00 0.00 43 1009.3
20260905213445 36 194 0.0 1.6 0.00 0.00 0.00 42 1009.2
20260905212940 36 183 3.2 3.2 0.00 0.00 0.00 43 1009.2
20260905212435 36 170 1.6 1.6 0.00 0.00 0.00 42 1009.5
20260905211934 37 133 6.4 9.7 0.00 0.00 0.00 42 1009.7
20260905211430 37 105 3.2 3.2 0.00 0.00 0.00 42 1009.7
20260905210926 36 196 0.0 0.0 0.00 0.00 0.00 42 1009.7
20260905210426 36 172 0.0 1.6 0.00 0.00 0.00 43 1009.9
20260905205926 36 145 1.6 3.2 0.00 0.00 0.00 43 1010.2
20260905205421 36 165 3.2 3.2 0.00 0.00 0.00 44 1010.1
20260905204920 36 175 0.0 0.0 0.00 0.00 0.00 44 1010.2
20260905204416 36 147 1.6 1.6 0.00 0.00 0.00 44 1010.2
20260905203915 36 142 3.2 3.2 0.00 0.00 0.00 43 1010.2
20260905203410 36 159 0.0 1.6 0.00 0.00 0.00 42 1010.4
20260905202906 36 194 0.0 0.0 0.00 0.00 0.00 42 1010.3
20260905202401 36 222 0.0 1.6 0.00 0.00 0.00 42 1010.4
20260905201856 36 172 0.0 0.0 0.00 0.00 0.00 41 1010.4
20260905201351 36 185 1.6 3.2 0.00 0.00 0.00 41 1010.4
20260905200845 36 188 1.6 3.2 0.00 0.00 0.00 41 1010.4
20260905200342 36 208 6.4 6.4 0.00 0.00 0.00 40 1010.5
20260905195839 36 206 3.2 3.2 0.00 0.00 0.00 41 1010.6
20260905195335 36 190 1.6 3.2 0.00 0.00 0.00 41 1010.6
20260905194831 36 211 3.2 3.2 0.00 0.00 0.00 42 1010.5
20260905194330 36 242 6.4 6.4 0.00 0.00 0.00 41 1010.7
20260905193829 37 174 3.2 4.8 0.00 0.00 0.00 41 1010.8
20260905193324 36 193 0.0 0.0 0.00 0.00 0.00 41 1010.7
20260905192820 36 212 3.2 3.2 0.00 0.00 0.00 41 1010.9
20260905192316 36 202 1.6 1.6 0.00 0.00 0.00 42 1010.9
20260905191816 36 213 3.2 4.8 0.00 0.00 0.00 43 1010.9
20260905191314 36 204 3.2 4.8 0.00 0.00 0.00 43 1011.1
20260905190813 37 191 3.2 3.2 0.00 0.00 0.00 41 1011.1
20260905190313 37 195 1.6 1.6 0.00 0.00 0.00 41 1011.1
20260905185812 37 201 0.0 0.0 0.00 0.00 0.00 41 1011.4
20260905185307 37 192 3.2 3.2 0.00 0.00 0.00 41 1011.2
20260905184801 37 207 1.6 1.6 0.00 0.00 0.00 42 1011.3
20260905184259 37 200 1.6 1.6 0.00 0.00 0.00 41 1011.5
20260905183758 37 312 3.2 3.2 0.00 0.00 0.00 41 1011.5
20260905183254 36 187 0.0 3.2 0.00 0.00 0.00 43 1011.7
20260905182753 36 162 1.6 1.6 0.00 0.00 0.00 43 1011.6
20260905182248 36 190 1.6 1.6 0.00 0.00 0.00 43 1011.4
20260905181743 37 186 0.0 0.0 0.00 0.00 0.00 40 1011.4
20260905181242 37 194 0.0 0.0 0.00 0.00 0.00 42 1011.7
20260905180737 36 206 0.0 0.0 0.00 0.00 0.00 42 1011.5
20260905180232 37 169 4.8 4.8 0.00 0.00 0.00 42 1011.6
20260905175732 37 196 0.0 1.6 0.00 0.00 0.00 42 1011.5
20260905175227 37 152 1.6 3.2 0.00 0.00 0.00 44 1011.6
20260905174722 36 204 1.6 1.6 0.00 0.00 0.00 44 1011.7
20260905174218 36 207 1.6 1.6 0.00 0.00 0.00 45 1011.9
20260905173714 37 187 0.0 0.0 0.00 0.00 0.00 44 1011.9
20260905173210 37 173 1.6 1.6 0.00 0.00 0.00 44 1012.0